Home > Weather > Truro > Past weeks

Flag for United Kingdom Past Weather in Truro, England, United Kingdom — Yesterday and Last 2 Weeks

Now
59 °F

Partly sunny.


Feels Like: 56 °F
Forecast: 53 / 63 °F
Wind: 17 mph from West

Location: Culdrose

Current Time: Jul 2, 2016 at 10:36:36 AM

Latest Report: Jul 2, 2016 at 9:50 AM


Visibility: N/A

Pressure: 30.04 "Hg

Humidity: 72%

Dew Point: 50 °F

Location of TruroLocation

Past Weather in Truro — Graph

°F

Truro Temperature Yesterday

Maximum temperature yesterday: 61 °F (at 2:50 PM)
Minimum temperature yesterday: 52 °F (at 10:50 PM)
Average temperature yesterday: 57 °F

High & Low Weather Summary for the Past Weeks

 TemperatureHumidityPressure
High64 °F (Jun 22, 6:50 PM)100% (Jun 19, 1:50 AM)30.30 "Hg (Jun 19, 1:50 AM)
Low46 °F (Jun 28, 5:50 AM)59% (Jun 18, 2:50 PM)29.77 "Hg (Jun 29, 2:50 PM)
Average58 °F87%30.03 "Hg
* Reported Jun 17 8:50 AM — Jul 2 8:50 AM, Truro, Weather by CustomWeather, © 2016

Note: Actual official high and low records may vary slightly from our data, if they occured in-between our weather recording intervals... More about our weather records

Advertising

Truro Weather History for the Previous 24 Hours

Scroll right to see more
 ConditionsComfort  
Time TempWeatherWind HumidityBarometerVisibility
8:50 AM
Sat, Jul 2
57 °FPassing clouds.15 mph77%30.01 "HgN/A
7:50 AM55 °FPartly sunny.13 mph82%30.01 "HgN/A
6:50 AM54 °FPassing clouds.13 mph88%29.98 "HgN/A
5:50 AM52 °FPassing clouds.10 mph88%29.98 "HgN/A
4:50 AM54 °FClear.14 mph82%29.95 "HgN/A
3:50 AM54 °FPassing clouds.16 mph82%29.95 "HgN/A
2:50 AM54 °FPassing clouds.14 mph82%29.95 "HgN/A
1:50 AM54 °FPassing clouds.20 mph82%29.95 "HgN/A
12:50 AM54 °FPassing clouds.13 mph88%29.95 "HgN/A
11:50 PM
Fri, Jul 1
54 °FPassing clouds.10 mph88%29.95 "HgN/A
10:50 PM52 °FPassing clouds.14 mph82%29.95 "HgN/A
9:50 PM55 °FScattered clouds.17 mph77%29.92 "HgN/A
8:50 PM54 °FPassing clouds.9 mph88%29.92 "HgN/A
6:50 PM59 °FScattered clouds.18 mph63%29.89 "HgN/A
5:50 PM57 °FBroken clouds.15 mph77%29.89 "HgN/A
4:50 PM59 °FPartly sunny.18 mph72%29.89 "HgN/A
3:50 PM57 °FPartly sunny.17 mph77%29.86 "HgN/A
2:50 PM61 °FPartly sunny.17 mph68%29.86 "HgN/A
1:50 PM57 °FBroken clouds.16 mph82%29.86 "HgN/A
12:50 PM59 °FPartly sunny.15 mph72%29.86 "HgN/A
11:50 AM59 °FBroken clouds.13 mph77%29.86 "HgN/A
10:50 AM59 °FScattered showers. Partly sunny.12 mph82%29.86 "HgN/A
Weather by CustomWeather, © 2016

See weather overviewHow to use our weather pages